Location: Kutna Hora
(49.9500°N, 15.2670°E)
Time: 12:35:26
(UTC+02:00)

ISS - Pass Details

Date: 23 May 2019
Orbit: 408 x 418 km, 51.6° (Epoch: 16 June)

Event Time Altitude Azimuth Distance (km) Brightness Sun altitude
Rises 00:14:16 0° 283° (WNW) 2,362 0.4 -19.0°
Reaches altitude 10° 00:16:22 10° 285° (WNW) 1,499 -0.7 -19.0°
Maximum altitude 00:19:44 74° 11° (NNE) 440 -3.6 -19.1°
Enters shadow 00:21:07 33° 90° (E) 736 -2.7 -19.2°
